Regional Weather Roundup
Issued by NWS

Home | Current Version | Previous Version | Graphics & Text | Print | Product List | Glossary On
Versions: 1 2 3 4 5 6 7 8 9 10 11 12 13 14 15 16 17 18 19 20 21 22 23 24 25 26 27 28 29 30 31 32 33 34 35 36 37 38 39 40 41 42 43 44 45 46 47 48 49 50
000
ASUS43 KLSX 271007
RWRMO

WEATHER SUMMARY FOR MISSOURI
NATIONAL WEATHER SERVICE SPRINGFIELD MO
500 AM CDT WED AUG 27 2014

NOTE: "FAIR" INDICATES FEW OR NO CLOUDS BELOW 12,000 FEET WITH NO
       SIGNIFICANT WEATHER AND/OR OBSTRUCTIONS TO VISIBILITY.
       CURRENT SKY AND/OR WEATHER CONDITIONS ARE NOT AVAILABLE FOR
       CHILLICOTHE AND FARMINGTON.

MOZ001>031-035>038-043-044-053-054-271100-
...NORTHERN AND WESTERN MISSOURI...

CITY           SKY/WX    TMP DP  RH WIND       PRES   REMARKS
KANSAS CTY INT MOCLDY    75  72  90 SE10      30.04F
KANSAS C DTWN  MOCLDY    76  72  87 E6        30.04F
LEE`S SUMMIT   CLEAR     73  72  96 E6        30.06F
ST JOSEPH      CLOUDY    75  71  87 E5        30.05F
CHILLICOTHE      N/A     71  68  90 CALM      30.08F
KIRKSVILLE     CLEAR     69  67  93 NE7       30.11S

$$
MOZ066>068-077>081-088>096-101>105-271100-
...SOUTHWEST MISSOURI...

CITY           SKY/WX    TMP DP  RH WIND       PRES   REMARKS
SPRINGFIELD    CLEAR     72  67  84 CALM      30.09F
JOPLIN         CLEAR     74  65  73 SE5       30.08F

$$
MOZ032>034-039>042-045>050-055>058-069>072-271100-
...CENTRAL MISSOURI...

CITY           SKY/WX    TMP DP  RH WIND       PRES   REMARKS
COLUMBIA       CLEAR     73  73 100 CALM      30.07F FOG
JEFFERSON CITY CLEAR     72  70  93 CALM      30.06F
ROLLA          CLEAR     71  66  84 S8        30.08S
SEDALIA        CLEAR     71  67  87 E3        30.08F
WHITEMAN AFB   CLEAR     70  54  56 CALM      30.06F
OSAGE BEACH    CLEAR     70  64  83 CALM      30.08S

$$
MOZ051-052-059>065-271100-
...EAST CENTRAL MISSOURI...

CITY           SKY/WX    TMP DP  RH WIND       PRES   REMARKS
ST LOUIS INTL  CLEAR     75  69  81 N3        30.07S
SPIRIT OF STL  CLEAR     73  69  87 CALM      30.05F
ST CHARLES     CLEAR     72  69  90 CALM      30.05F

$$
MOZ072>076-082>087-097>100-106>115-271100-
...SOUTH CENTRAL AND SOUTHEAST MISSOURI...

CITY           SKY/WX    TMP DP  RH WIND       PRES   REMARKS
CAPE GIRARDEAU FOG       70  69  97 CALM      30.06S VSB 1/4
FARMINGTON     CLEAR     70  68  94 CALM      30.11S
POPLAR BLUFF   CLEAR     71  67  87 CALM      30.05S
WEST PLAINS    CLEAR     70  67  90 CALM      30.11F

$$



USA.gov is the U.S. government's official web portal to all federal, state and local government web resources and services.